[Date Prev][Date Next][Thread Prev][Thread Next] - [Date Index][Thread Index][Author Index]
2 Line ISS Keps 11-5
- Subject: [sarex] 2 Line ISS Keps 11-5
- From: "Dave Larsen PhD" <doc@xxxxxxxxxxx>
- Date: Mon, 5 Nov 2001 03:17:02 -0800
ISS
1 25544U 98067A 01309.18439815 .00057576 00000-0 70921-3 0 6889
2 25544 51.6392 99.6380 0008855 290.8315 74.4175 15.59605078169085
----
Via the sarex mailing list at AMSAT.ORG courtesy of AMSAT-NA.
To unsubscribe, send "unsubscribe sarex" to Majordomo@amsat.org
AMSAT Home